| time (UTC) | temp F | wind direction | speed MPH | gust MPH | rain 1hr in | rain 24hr in | rain mn in | humidity % | barometer mb |
| 20260507160055 | 61 | 283 | 7.0 | 16.0 | 0.00 | 0.17 | 0.00 | 62 | 1011.6 |
| 20260507154555 | 61 | 218 | 4.0 | 15.0 | 0.00 | 0.20 | 0.00 | 63 | 1011.4 |
| 20260507153041 | 62 | 283 | 8.0 | 19.0 | 0.00 | 0.20 | 0.00 | 60 | 1011.3 |
| 20260507151540 | 63 | 197 | 8.0 | 20.0 | 0.00 | 0.20 | 0.00 | 60 | 1011.2 |
| 20260507144522 | 64 | 232 | 5.0 | 13.0 | 0.00 | 0.20 | 0.00 | 58 | 1010.9 |
| 20260507143029 | 64 | 208 | 5.0 | 13.0 | 0.00 | 0.20 | 0.00 | 59 | 1010.7 |
| 20260507141557 | 64 | 197 | 8.0 | 21.0 | 0.00 | 0.20 | 0.00 | 57 | 1010.8 |
| 20260507140046 | 64 | 203 | 8.0 | 12.0 | 0.00 | 0.20 | 0.00 | 59 | 1010.7 |
| 20260507134511 | 63 | 212 | 4.0 | 10.0 | 0.00 | 0.20 | 0.00 | 60 | 1010.8 |
| 20260507133024 | 63 | 195 | 8.0 | 17.0 | 0.00 | 0.20 | 0.00 | 59 | 1010.9 |
| 20260507131513 | 63 | 207 | 6.0 | 16.0 | 0.00 | 0.20 | 0.00 | 59 | 1010.9 |
| 20260507130027 | 63 | 221 | 3.0 | 12.0 | 0.00 | 0.20 | 0.00 | 61 | 1010.9 |
| 20260507124536 | 62 | 224 | 7.0 | 16.0 | 0.00 | 0.20 | 0.00 | 60 | 1010.8 |
| 20260507123105 | 62 | 222 | 6.0 | 13.0 | 0.00 | 0.20 | 0.00 | 61 | 1010.8 |
| 20260507121610 | 62 | 213 | 9.0 | 14.0 | 0.00 | 0.20 | 0.00 | 61 | 1010.8 |
| 20260507120024 | 60 | 193 | 5.0 | 15.0 | 0.00 | 0.20 | 0.00 | 63 | 1010.8 |
| 20260507114638 | 61 | 203 | 7.0 | 18.0 | 0.00 | 0.20 | 0.00 | 63 | 1010.8 |
| 20260507113013 | 61 | 201 | 4.0 | 13.0 | 0.00 | 0.20 | 0.00 | 63 | 1010.7 |
| 20260507111559 | 61 | 229 | 5.0 | 14.0 | 0.00 | 0.20 | 0.00 | 62 | 1010.6 |
| 20260507110029 | 61 | 210 | 7.0 | 21.0 | 0.00 | 0.20 | 0.00 | 62 | 1010.5 |
| 20260507104605 | 62 | 234 | 7.0 | 16.0 | 0.00 | 0.20 | 0.00 | 62 | 1010.4 |
| 20260507103009 | 62 | 217 | 6.0 | 17.0 | 0.00 | 0.20 | 0.00 | 64 | 1010.4 |
| 20260507101613 | 61 | 180 | 4.0 | 13.0 | 0.00 | 0.20 | 0.00 | 65 | 1010.2 |
| 20260507100103 | 60 | 231 | 7.0 | 17.0 | 0.00 | 0.20 | 0.00 | 68 | 1010.2 |
| 20260507094524 | 60 | 216 | 9.0 | 18.0 | 0.00 | 0.20 | 0.00 | 68 | 1010.1 |
| 20260507093035 | 61 | 215 | 9.0 | 21.0 | 0.00 | 0.20 | 0.00 | 67 | 1010.0 |
| 20260507091609 | 61 | 215 | 7.0 | 16.0 | 0.00 | 0.20 | 0.00 | 68 | 1010.0 |
| 20260507090021 | 62 | 214 | 7.0 | 14.0 | 0.00 | 0.20 | 0.00 | 69 | 1009.7 |
| 20260507084504 | 61 | 194 | 6.0 | 17.0 | 0.00 | 0.20 | 0.00 | 69 | 1009.5 |
| 20260507083051 | 61 | 273 | 5.0 | 12.0 | 0.00 | 0.20 | 0.00 | 72 | 1009.5 |
| 20260507081609 | 60 | 257 | 7.0 | 16.0 | 0.00 | 0.20 | 0.00 | 72 | 1009.3 |
| 20260507080039 | 61 | 205 | 6.0 | 17.0 | 0.00 | 0.20 | 0.00 | 74 | 1009.1 |
| 20260507074529 | 60 | 226 | 6.0 | 15.0 | 0.00 | 0.20 | 0.00 | 78 | 1009.2 |
| 20260507073003 | 59 | 206 | 8.0 | 16.0 | 0.00 | 0.20 | 0.00 | 80 | 1009.1 |
| 20260507071541 | 58 | 237 | 7.0 | 17.0 | 0.00 | 0.20 | 0.00 | 82 | 1009.0 |
| 20260507070009 | 57 | 223 | 7.0 | 17.0 | 0.00 | 0.20 | 0.00 | 87 | 1008.8 |
| 20260507064524 | 56 | 234 | 3.0 | 10.0 | 0.00 | 0.20 | 0.00 | 91 | 1008.7 |
| 20260507063109 | 56 | 176 | 5.0 | 10.0 | 0.00 | 0.20 | 0.00 | 94 | 1008.6 |
| 20260507061539 | 54 | 240 | 3.0 | 8.0 | 0.00 | 0.20 | 0.00 | 96 | 1008.4 |
| 20260507060050 | 53 | 218 | 2.0 | 7.0 | 0.00 | 0.20 | 0.00 | 96 | 1008.3 |
| 20260507054552 | 52 | 218 | 1.0 | 5.0 | 0.00 | 0.20 | 0.00 | 96 | 1008.2 |
| 20260507053002 | 52 | 228 | 1.0 | 4.0 | 0.00 | 0.20 | 0.00 | 96 | 1008.1 |
| 20260507051514 | 52 | 208 | 2.0 | 6.0 | 0.00 | 0.20 | 0.00 | 96 | 1008.0 |
| 20260507050056 | 52 | 171 | 1.0 | 4.0 | 0.00 | 0.20 | 0.00 | 96 | 1007.8 |
| 20260507044528 | 52 | 213 | 1.0 | 3.0 | 0.00 | 0.20 | 0.00 | 96 | 1007.5 |
| 20260507043059 | 51 | 219 | 2.0 | 4.0 | 0.00 | 0.20 | 0.00 | 96 | 1007.5 |
| 20260507041551 | 51 | 209 | 3.0 | 6.0 | 0.00 | 0.20 | 0.00 | 96 | 1007.2 |
| 20260507040137 | 51 | 207 | 2.0 | 5.0 | 0.00 | 0.20 | 0.00 | 96 | 1007.2 |
| 20260507034551 | 51 | 204 | 1.0 | 3.0 | 0.00 | 0.20 | 0.00 | 95 | 1007.0 |
| 20260507033054 | 51 | 205 | 0.0 | 2.0 | 0.00 | 0.20 | 0.00 | 95 | 1007.0 |
| 20260507031527 | 51 | 202 | 0.0 | 4.0 | 0.00 | 0.20 | 0.00 | 95 | 1007.0 |
| 20260507030024 | 52 | 190 | 0.0 | 2.0 | 0.00 | 0.20 | 0.00 | 95 | 1006.8 |
| 20260507024606 | 52 | 189 | 1.0 | 5.0 | 0.00 | 0.20 | 0.00 | 95 | 1006.7 |
| 20260507023025 | 52 | 207 | 1.0 | 8.0 | 0.00 | 0.20 | 0.00 | 95 | 1006.6 |
| 20260507021516 | 53 | 200 | 2.0 | 6.0 | 0.00 | 0.20 | 0.00 | 95 | 1006.6 |
| 20260507020109 | 53 | 209 | 2.0 | 6.0 | 0.00 | 0.20 | 0.00 | 95 | 1006.5 |
| 20260507014552 | 54 | 221 | 3.0 | 8.0 | 0.00 | 0.20 | 0.00 | 95 | 1006.5 |
| 20260507013018 | 54 | 219 | 1.0 | 5.0 | 0.00 | 0.20 | 0.00 | 95 | 1006.4 |
| 20260507011546 | 54 | 211 | 2.0 | 6.0 | 0.00 | 0.20 | 0.00 | 95 | 1006.2 |
| 20260507010025 | 55 | 217 | 0.0 | 5.0 | 0.00 | 0.20 | 0.00 | 95 | 1006.0 |
| 20260507004506 | 55 | 214 | 2.0 | 6.0 | 0.00 | 0.20 | 0.00 | 95 | 1005.9 |
| 20260507003042 | 55 | 216 | 3.0 | 7.0 | 0.00 | 0.20 | 0.00 | 95 | 1005.9 |
| 20260507001511 | 55 | 229 | 3.0 | 7.0 | 0.00 | 0.20 | 0.00 | 95 | 1005.8 |
| 20260507000052 | 56 | 227 | 1.0 | 3.0 | 0.00 | 0.20 | 0.00 | 95 | 1005.6 |
| 20260506234517 | 56 | 227 | 0.0 | 2.0 | 0.00 | 0.20 | 0.00 | 95 | 1005.4 |
| 20260506233030 | 56 | 227 | 0.0 | 3.0 | 0.00 | 0.20 | 0.00 | 95 | 1005.3 |
| 20260506231608 | 56 | 229 | 0.0 | 3.0 | 0.00 | 0.20 | 0.00 | 94 | 1005.4 |
| 20260506230058 | 56 | 229 | 0.0 | 2.0 | 0.00 | 0.20 | 0.00 | 94 | 1005.4 |
| 20260506224509 | 57 | 230 | 2.0 | 6.0 | 0.00 | 0.24 | 0.00 | 94 | 1005.4 |
| 20260506223056 | 57 | 240 | 0.0 | 4.0 | 0.01 | 0.24 | 0.00 | 94 | 1005.3 |
| 20260506221613 | 57 | 253 | 2.0 | 4.0 | 0.01 | 0.24 | 0.00 | 94 | 1005.3 |
| 20260506220039 | 57 | 115 | 0.0 | 3.0 | 0.02 | 0.24 | 0.00 | 94 | 1004.9 |
| 20260506214538 | 57 | 97 | 1.0 | 6.0 | 0.06 | 0.32 | 0.24 | 93 | 1005.0 |
| 20260506213020 | 57 | 130 | 2.0 | 8.0 | 0.07 | 0.31 | 0.24 | 93 | 1004.9 |
| 20260506211532 | 57 | 129 | 0.0 | 3.0 | 0.13 | 0.31 | 0.24 | 93 | 1005.1 |
| 20260506210049 | 58 | 196 | 0.0 | 2.0 | 0.14 | 0.30 | 0.22 | 92 | 1005.1 |
| 20260506204524 | 58 | 199 | 1.0 | 6.0 | 0.12 | 0.35 | 0.19 | 91 | 1005.4 |
| 20260506203053 | 59 | 222 | 1.0 | 8.0 | 0.09 | 0.33 | 0.17 | 89 | 1005.3 |
| 20260506201529 | 60 | 191 | 1.0 | 4.0 | 0.03 | 0.27 | 0.10 | 87 | 1005.0 |
| 20260506200036 | 60 | 59 | 0.0 | 5.0 | 0.01 | 0.24 | 0.08 | 83 | 1004.2 |
| 20260506194550 | 60 | 9 | 0.0 | 3.0 | 0.00 | 0.24 | 0.07 | 82 | 1003.9 |
| 20260506193104 | 60 | 292 | 0.0 | 7.0 | 0.00 | 0.24 | 0.07 | 82 | 1003.9 |
| 20260506191504 | 60 | 350 | 1.0 | 6.0 | 0.00 | 0.24 | 0.07 | 81 | 1003.6 |
| 20260506190020 | 61 | 322 | 0.0 | 0.0 | 0.00 | 0.24 | 0.07 | 81 | 1003.9 |
| 20260506184554 | 61 | 321 | 1.0 | 4.0 | 0.00 | 0.24 | 0.07 | 79 | 1003.4 |
| 20260506183107 | 61 | 74 | 1.0 | 3.0 | 0.00 | 0.24 | 0.07 | 79 | 1003.2 |
| 20260506181514 | 61 | 35 | 4.0 | 7.0 | 0.00 | 0.24 | 0.07 | 79 | 1002.6 |
| 20260506180041 | 62 | 75 | 2.0 | 8.0 | 0.00 | 0.24 | 0.07 | 79 | 1002.4 |
| 20260506174542 | 62 | 45 | 4.0 | 9.0 | 0.00 | 0.24 | 0.07 | 79 | 1002.5 |
| 20260506173106 | 61 | 15 | 2.0 | 6.0 | 0.00 | 0.24 | 0.07 | 79 | 1002.6 |
| 20260506171534 | 61 | 72 | 2.0 | 8.0 | 0.00 | 0.24 | 0.07 | 77 | 1002.6 |
| 20260506164512 | 62 | 65 | 1.0 | 4.0 | 0.01 | 0.24 | 0.07 | 77 | 1002.5 |
| 20260506163008 | 62 | 82 | 1.0 | 6.0 | 0.02 | 0.24 | 0.07 | 80 | 1002.7 |
| 20260506161522 | 62 | 102 | 4.0 | 10.0 | 0.03 | 0.24 | 0.07 | 82 | 1003.0 |